Starlink 31581

operational
NORAD ID: 59474 Int'l Des: 2024-068 Owner: SPXS Country: US Constellation: starlink
LEOCIRCULAR

关于 Starlink 31581

正在加载描述...

实时位置

正在加载3D地球...

即将过境

高度历史

Altitude vs Time

uPlot chart will show altitude changes over time

两行轨道根数

1 59474U 24068V 25258.18470566 .00002217 00000-0 90057-4 0 9995
2 59474 43.0032 298.5538 0001145 263.0319 97.0403 15.27583248 81768
Epoch: Sep 15, 2025 • Age: 25 hours

当前状态

高度 485.9 km
速度 7.62 km/s
星下点 -15.99°S, 162.12°W
发射日期 Apr 10, 2024
运行时间 1.4 years
类型 internet

技术详情

分类 Payload
质量 730.00 kg
干质量 700.00 kg
总质量 730.00 kg
长度 0.30 m
直径 4.10 m
跨度 29.00 m
形状 Box + pan
制造商 SPXS
平台类型 Starlink V2M
阶段状态 In Orbit
所有者/国家 SPXS/US

大型星座

Loading constellations...